Flag for Netherlands Weather past 2 weeks in Zwolle, Netherlands

Now
61 °F

Fog.


Feels Like: 61 °F
Forecast: 59 / 73 °F
Wind: 2 mph from East

Location: Amsterdam Schiphol Airport

Current Time: Sep 17, 2014 at 6:07:14 AM

Latest Report: Sep 17, 2014 at 5:25 AM


Visibility: 4 mi

Pressure: 29.92 "Hg

Humidity: 94%

Dew point: 59 °F

Location of ZwolleLocation

Historic Weather in Zwolle — Graph

°F

Zwolle temperature yesterday

Maximum temperature yesterday: 75 °F (at 4:25 PM)
Minimum temperature yesterday: 57 °F (at 6:25 AM)
Average temperature yesterday: 65 °F

Past Weeks' High & Low Weather Summary

 TemperatureHumidityPressure
High75 °F (Sep 5, 4:25 PM)100% (Sep 3, 12:25 AM)30.30 "Hg (Sep 3, 12:25 AM)
Low50 °F (Sep 8, 5:25 AM)49% (Sep 10, 2:25 PM)29.89 "Hg (Sep 6, 4:25 AM)
Average62 °F83%30.10 "Hg
* Reported Sep 2 4:25 AM — Sep 17 4:55 AM, Zwolle, Weather by CustomWeather, © 2014

Note: Actual official high and low records may vary slightly from our data, if they occured in-between our weather recording intervals... More about our weather records

Advertising

Zwolle weather history for previous 24 hours

 ConditionsComfort  
Time TempWeatherWind HumidityBarometerVisibility
4:55 AM
Sep 17
61 °FFog.2 mph94%29.92 "Hg4 mi
4:25 AM59 °FFog.3 mph100%29.92 "Hg4 mi
3:55 AM61 °FFog.3 mph100%29.92 "Hg4 mi
3:25 AM61 °FFog.5 mph94%29.92 "Hg4 mi
2:55 AM61 °FFog.3 mph100%29.92 "Hg4 mi
2:25 AM63 °FFog.3 mph94%29.92 "Hg4 mi
1:55 AM61 °FFog.5 mph100%29.92 "Hg4 mi
1:25 AM63 °FClear.2 mph100%29.92 "Hg5 mi
12:55 AM61 °FClear.1 mph100%29.95 "Hg4 mi
12:25 AM63 °FClear.1 mph94%29.95 "Hg4 mi
11:55 PM
Sep 16
63 °FClear.2 mph94%29.95 "Hg5 mi
11:25 PM64 °FClear.3 mph94%29.95 "Hg6 mi
10:55 PM61 °FClear.6 mph100%29.95 "Hg6 mi
10:25 PM61 °FClear.5 mph100%29.95 "Hg6 mi
9:55 PM63 °FClear.5 mph94%29.95 "Hg6 mi
9:25 PM66 °FClear.2 mph88%29.95 "Hg6 mi
8:55 PM66 °FClear.2 mph88%29.95 "Hg6 mi
8:25 PM66 °FClear.3 mph88%29.95 "Hg6 mi
7:55 PM68 °FPassing clouds.3 mph83%29.92 "HgN/A
7:25 PM68 °FPassing clouds.5 mph83%29.92 "HgN/A
6:55 PM70 °FPassing clouds.6 mph83%29.92 "HgN/A
6:25 PM70 °FScattered showers. Passing clouds.5 mph78%29.92 "HgN/A
5:55 PM70 °FPassing clouds.6 mph78%29.95 "HgN/A
5:25 PM73 °FPassing clouds.7 mph69%29.95 "HgN/A
4:55 PM73 °FPassing clouds.7 mph65%29.95 "HgN/A
4:25 PM75 °FScattered showers. Passing clouds.5 mph61%29.95 "HgN/A
3:55 PM73 °FPassing clouds.7 mph69%29.95 "HgN/A
3:25 PM72 °FPassing clouds.7 mph73%29.95 "HgN/A
2:55 PM72 °FPassing clouds.5 mph73%29.95 "HgN/A
1:25 PM73 °FPassing clouds.3 mph69%29.98 "Hg2 mi
12:55 PM73 °FPassing clouds.3 mph65%29.98 "HgN/A
12:25 PM73 °FPassing clouds.5 mph69%29.98 "HgN/A
11:55 AM72 °FPassing clouds.5 mph73%30.01 "HgN/A
11:25 AM70 °FPassing clouds.5 mph78%30.01 "HgN/A
10:55 AM70 °FClear.5 mph78%30.01 "Hg6 mi
10:25 AM68 °FClear.3 mph83%30.01 "Hg4 mi
9:55 AM66 °FClear.5 mph88%30.01 "Hg4 mi
9:25 AM63 °FFog.3 mph100%30.01 "Hg2 mi
8:55 AM61 °FCool.3 mph100%30.01 "Hg1 mi
8:25 AM59 °FCool.3 mph100%29.98 "Hg1 mi
7:55 AM57 °FCool.3 mph100%29.98 "Hg1 mi
7:25 AM57 °FCool.5 mph100%29.98 "Hg1 mi
6:55 AM59 °FLight fog.5 mph100%29.98 "Hg1 mi
6:25 AM57 °FLight fog.3 mph100%29.98 "Hg1 mi
Weather by CustomWeather, © 2014

See weather overviewHow to use our weather pages